TimeEST,TemperatureF,Dew PointF,Humidity,Sea Level PressureIn,VisibilityMPH,Wind Direction,Wind SpeedMPH,Gust SpeedMPH,PrecipitationIn,Events,Conditions,WindDirDegrees,DateUTC
12:00 AM,19.4,17.6,93,29.86,1.0,Calm,Calm,-,N/A,Snow,Light Snow,0,2012-11-25 05:00:00
1:00 AM,20,19,92,29.83,1,West,2.3,,,Snow,Light Snow,280,2012-11-25 06:00:00
1:00 AM,19.4,19.4,100,29.83,1.0,West,2.3,-,N/A,Snow,Light Snow,280,2012-11-25 06:00:00
2:00 AM,19.4,19.4,100,29.81,1.5,WSW,4.6,-,N/A,Snow,Light Snow,240,2012-11-25 07:00:00
3:00 AM,19.4,19.4,100,29.79,2.0,WSW,5.8,-,N/A,Snow,Light Snow,240,2012-11-25 08:00:00
4:00 AM,21.2,19.4,93,29.78,15.0,WSW,4.6,-,N/A,Snow,Light Snow,240,2012-11-25 09:00:00
5:00 AM,21.2,19.4,93,29.76,15.0,WSW,4.6,-,N/A,Snow,Light Snow,240,2012-11-25 10:00:00
6:00 AM,19.4,17.6,93,29.77,15.0,WSW,6.9,-,N/A,Snow,Light Snow,250,2012-11-25 11:00:00
7:00 AM,21,19,88,29.77,10,West,4.6,,,Snow,Light Snow,260,2012-11-25 12:00:00
7:00 AM,21.2,19.4,93,29.77,15.0,West,4.6,-,N/A,Snow,Light Snow,270,2012-11-25 12:00:00
8:00 AM,23.0,19.4,86,29.76,15.0,West,5.8,-,N/A,Snow,Light Snow,280,2012-11-25 13:00:00
9:00 AM,23.0,19.4,86,29.76,20.0,West,6.9,-,N/A,Snow,Light Snow,260,2012-11-25 14:00:00
9:13 AM,23.0,21.2,93,29.77,20.0,West,5.8,-,N/A,,Mostly Cloudy,260,2012-11-25 14:13:00
10:00 AM,23.0,19.4,86,29.78,20.0,West,8.1,-,N/A,,Mostly Cloudy,280,2012-11-25 15:00:00
10:23 AM,23.0,19.4,86,29.79,20.0,West,8.1,-,N/A,Snow,Light Snow,280,2012-11-25 15:23:00
11:00 AM,24.8,19.4,80,29.80,6.0,WNW,8.1,-,N/A,Snow,Light Snow,300,2012-11-25 16:00:00
12:00 PM,24.8,19.4,80,29.80,15.0,WNW,17.3,-,N/A,Snow,Light Snow,300,2012-11-25 17:00:00
1:00 PM,24,16,61,29.81,10,West,17.3,,,,Overcast,280,2012-11-25 18:00:00
1:00 PM,23.0,15.8,74,29.81,20.0,West,15.0,26.5,N/A,Snow,Light Snow,280,2012-11-25 18:00:00
2:00 PM,23.0,15.8,74,29.82,10.0,WNW,11.5,23.0,N/A,Snow,Low Drifting Snow,300,2012-11-25 19:00:00
3:00 PM,24.8,14.0,64,29.83,20.0,NW,13.8,23.0,N/A,Snow,Low Drifting Snow,310,2012-11-25 20:00:00
3:07 PM,24.8,14.0,64,29.83,20.0,NW,19.6,26.5,N/A,Snow,Light Snow,310,2012-11-25 20:07:00
4:00 PM,21.2,10.4,63,29.86,20.0,WNW,13.8,24.2,N/A,Snow,Low Drifting Snow,300,2012-11-25 21:00:00
4:43 PM,21.2,10.4,63,29.88,20.0,WNW,10.4,-,N/A,Snow,Low Drifting Snow,290,2012-11-25 21:43:00
5:00 PM,21.2,10.4,63,29.89,20.0,WNW,9.2,-,N/A,,Partly Cloudy,290,2012-11-25 22:00:00
6:00 PM,17.6,12.2,79,29.93,15.0,WNW,5.8,-,N/A,,Partly Cloudy,290,2012-11-25 23:00:00
7:00 PM,16,11,75,29.96,10,WNW,5.8,,,,,290,2012-11-26 00:00:00
7:00 PM,15.8,10.4,79,29.96,15.0,WNW,5.8,-,N/A,,Partly Cloudy,290,2012-11-26 00:00:00
8:00 PM,14.0,10.4,86,29.99,15.0,WNW,5.8,-,N/A,,Partly Cloudy,290,2012-11-26 01:00:00
9:00 PM,14.0,8.6,79,30.02,15.0,West,6.9,-,N/A,,Clear,270,2012-11-26 02:00:00
10:00 PM,12.2,8.6,85,30.04,15.0,West,6.9,-,N/A,,Clear,280,2012-11-26 03:00:00
11:00 PM,10.4,8.6,92,30.06,15.0,WSW,6.9,-,N/A,,Clear,250,2012-11-26 04:00:00